Baker, OR

4:24 AM PDT on October 18, 2017 (GMT -0700)
Baker City Municipal

Weather History for KBKE - February, 2013

Change the Weather History Date:

Wednesday, February 20, 2013

  Actual Average Record
Temperature  
Mean Temperature 31 °F 31 °F  
Max Temperature 40 °F 42 °F 59 °F (1968)
Min Temperature 22 °F 20 °F 0 °F (1957)
Degree Days  
Heating Degree Days 34 34  
Month to date heating degree days 667 732  
Since 1 July heating degree days 5120 5255  
Cooling Degree Days 0 0  
Month to date cooling degree days 0 0  
Year to date cooling degree days 0 0  
Moisture  
Dew Point 22 °F    
Average Humidity 68    
Maximum Humidity 88    
Minimum Humidity 48    
Precipitation  
Precipitation T in 0.02 in 0.19 in (2005)
Month to date precipitation 0.23 0.41  
Year to date precipitation 1.07 1.21  
Sea Level Pressure  
Sea Level Pressure 29.97 in    
Wind  
Wind Speed 9 mph (NW)    
Max Wind Speed 20 mph    
Max Gust Speed 24 mph    
Visibility 10 miles    
Events      
T = Trace of Precipitation, MM = Missing Value Source: NWS Daily Summary

Daily Weather History Graph

Daily Weather History Graph

Search for Another Location

Airport or City:

Trip Planner

Search our weather history database for the weather conditions in past years. The results will help you decide how hot, cold, wet, or windy it might be!

Date:

Astronomy

Feb. 20, 2013 Rise Set
Actual Time 6:43 AM PST 5:27 PM PST
Civil Twilight 6:13 AM PST 5:56 PM PST
Nautical Twilight 5:39 AM PST 6:30 PM PST
Astronomical Twilight 5:05 AM PST 7:04 PM PST
Moon 12:44 PM PST (2/20) 3:15 AM PST (2/20)
Length of Visible Light 11h 43m
Length of Day
10h 43m
Waxing Gibbous, 77% of the Moon is Illuminated
Feb 20
Waxing Gibbous
Feb 25
Full
Mar 4
Last Quarter
Mar 11
New
Mar 19
First Quarter

Hourly Weather History & Observations

Time (PST) Temp. Windchill Dew Point Humidity Pressure Visibility Wind Dir Wind Speed Gust Speed Precip Events Conditions
12:53 AM 24.1 °F 18.2 °F 21.0 °F 88% 29.92 in 10.0 mi NNW 4.6 mph - N/A   Mostly Cloudy
1:53 AM 26.1 °F 19.4 °F 21.9 °F 84% 29.93 in 10.0 mi NW 5.8 mph - N/A   Overcast
2:53 AM 24.1 °F 18.2 °F 19.9 °F 84% 29.93 in 10.0 mi WNW 4.6 mph - N/A   Scattered Clouds
3:53 AM 24.1 °F 16.0 °F 19.9 °F 84% 29.94 in 10.0 mi NNW 6.9 mph - N/A   Scattered Clouds
4:53 AM 24.8 °F 16.1 °F 21.2 °F 86% 29.87 in 10.0 mi NNW 8.1 mph - N/A   Mostly Cloudy
5:53 AM 26.1 °F 16.2 °F 21.9 °F 84% 29.95 in 10.0 mi NNW 10.4 mph - N/A   Clear
6:53 AM 28.0 °F 17.0 °F 23.0 °F 81% 29.97 in 10.0 mi NNW 13.8 mph - N/A   Mostly Cloudy
7:53 AM 30.0 °F 20.5 °F 25.0 °F 82% 29.99 in 10.0 mi NNW 11.5 mph - N/A   Overcast
8:53 AM 30.9 °F 22.2 °F 25.0 °F 79% 29.99 in 10.0 mi NNW 10.4 mph - 0.00 in   Overcast
9:53 AM 33.1 °F 24.4 °F 25.0 °F 72% 30.00 in 10.0 mi NW 11.5 mph - N/A   Overcast
10:53 AM 35.1 °F 24.5 °F 23.0 °F 61% 29.99 in 10.0 mi NNW 18.4 mph 24.2 mph N/A   Mostly Cloudy
11:53 AM 37.0 °F 28.5 °F 21.9 °F 54% 29.99 in 10.0 mi NW 13.8 mph - N/A   Clear
12:53 PM 39.0 °F 31.0 °F 21.0 °F 49% 29.96 in 10.0 mi NNW 13.8 mph 23.0 mph N/A   Clear
1:53 PM 39.0 °F 30.6 °F 21.0 °F 49% 29.94 in 10.0 mi NW 15.0 mph 23.0 mph N/A   Clear
2:53 PM 39.0 °F 29.9 °F 21.0 °F 49% 29.94 in 10.0 mi NNW 17.3 mph - N/A   Clear
3:53 PM 37.9 °F 30.5 °F 19.9 °F 48% 29.95 in 10.0 mi NNW 11.5 mph 20.7 mph N/A   Clear
4:53 PM 33.1 °F 25.5 °F 21.0 °F 61% 29.97 in 10.0 mi North 9.2 mph - N/A   Clear
5:53 PM 30.9 °F 22.8 °F 21.0 °F 67% 29.98 in 10.0 mi NNW 9.2 mph - N/A   Clear
6:53 PM 32.0 °F 23.6 °F 21.9 °F 66% 29.99 in 10.0 mi North 10.4 mph - N/A   Clear
7:53 PM 28.4 °F 24.6 °F 21.2 °F 74% 29.93 in 10.0 mi West 3.5 mph - N/A   Clear
8:53 PM 28.9 °F 25.2 °F 23.0 °F 78% 30.02 in 10.0 mi WSW 3.5 mph - N/A   Clear
9:53 PM 28.0 °F 22.8 °F 23.0 °F 81% 30.02 in 10.0 mi NW 4.6 mph - N/A   Overcast
10:53 PM 26.1 °F - 23.0 °F 88% 30.02 in 10.0 mi Calm Calm - N/A   Mostly Cloudy
11:53 PM 23.0 °F 17.0 °F 21.0 °F 92% 30.02 in 10.0 mi SSE 4.6 mph - N/A   Clear